Total_Precipitation_Accumulation
0.00 0.00 0.02 0.23 0.47 1.42 3.15 2.28 2.32 1.33 1.64 0.80 0.92 0.71 1.04 0.53 0.38 0.99 0.59 0.37 0.34 0.14 0.07 0.02 0.02 0.12 1.19 0.46 0.14 0.16 0.06 0.24 0.10 1.08 0.52 0.25 0.12 0.09 0.14 0.18 0.20 0.20 0.27 0.27 0.42 0.66 0.83 0.40 0.37 0.61 0.59 0.34 0.33 0.40 0.40 0.17 0.05 0.04 0.03 0.02 0.01 0.00 0.00 0.00 0.00 0.01 0.01 0.00 0.00 0.00 0.02 0.03 0.03 0.05 0.04 0.02 0.01 0.02 0.03 0.02 0.01 0.01 0.03 0.02 0.03 0.07 0.04 0.03 0.03 0.03 0.04 0.11 0.07 0.05 0.09 0.05 0.07
0.00 0.02 0.03 0.34 0.63 2.42 1.75 1.06 0.99 0.91 0.61 0.69 0.58 0.48 0.49 0.56 0.92 0.61 0.39 0.74 0.32 0.07 0.03 0.04 0.06 0.04 0.12 0.03 0.03 0.04 0.05 0.08 0.19 0.10 0.16 0.07 0.19 0.13 0.11 0.12 0.16 0.14 0.14 0.18 0.34 0.35 0.33 0.53 0.51 0.42 0.52 0.51 0.23 0.44 0.49 0.11 0.05 0.02 0.02 0.01 0.01 0.01 0.00 0.00 0.01 0.01 0.01 0.01 0.01 0.01 0.02 0.01 0.02 0.02 0.01 0.02 0.01 0.02 0.02 0.03 0.03 0.02 0.03 0.03 0.04 0.04 0.04 0.06 0.04 0.06 0.07 0.10 0.11 0.09 0.11 0.05 0.06
0.02 0.09 0.28 0.28 0.85 0.77 1.29 1.10 1.30 0.83 0.98 0.70 0.24 0.53 0.46 0.44 0.60 0.54 0.42 0.58 0.07 0.06 0.05 0.15 0.31 0.08 0.07 0.18 0.15 0.08 0.15 0.11 0.11 0.07 0.12 0.13 0.24 0.41 0.11 0.09 0.09 0.09 0.11 0.16 0.29 0.29 0.32 0.52 0.26 0.36 0.46 0.26 0.12 0.15 0.12 0.08 0.04 0.03 0.01 0.01 0.00 0.01 0.01 0.02 0.01 0.04 0.01 0.04 0.01 0.01 0.01 0.01 0.01 0.02 0.02 0.02 0.02 0.04 0.04 0.06 0.03 0.05 0.03 0.02 0.03 0.05 0.02 0.03 0.06 0.07 0.09 0.15 0.11 0.12 0.09 0.03 0.01
0.13 0.12 0.53 0.35 1.90 0.70 1.47 0.89 0.68 0.64 0.87 0.28 0.43 0.22 0.37 0.22 0.20 0.17 0.15 0.08 0.10 0.06 0.14 0.15 0.47 0.14 0.42 0.06 0.05 0.04 0.09 0.13 0.06 0.01 0.22 0.15 0.08 0.14 0.09 0.06 0.08 0.08 0.10 0.19 0.24 0.20 0.11 0.17 0.10 0.19 0.23 0.13 0.12 0.16 0.12 0.06 0.04 0.04 0.01 0.01 0.01 0.01 0.00 0.01 0.03 0.01 0.00 0.01 0.00 0.00 0.01 0.01 0.06 0.01 0.02 0.02 0.02 0.02 0.02 0.02 0.03 0.04 0.04 0.05 0.03 0.05 0.05 0.05 0.06 0.06 0.10 0.10 0.15 0.10 0.11 0.10 0.02
0.07 0.09 0.38 0.91 1.14 1.26 0.49 0.57 0.58 0.43 0.56 0.69 0.61 0.10 0.19 0.16 0.09 0.10 0.13 0.08 0.09 0.06 0.08 0.05 0.05 0.09 0.23 0.10 0.17 0.17 0.16 0.03 0.06 0.03 0.06 0.07 0.06 0.11 0.13 0.07 0.07 0.07 0.09 0.12 0.10 0.10 0.13 0.08 0.13 0.16 0.12 0.10 0.07 0.13 0.08 0.04 0.05 0.02 0.01 0.02 0.01 0.00 0.01 0.00 0.01 0.01 0.00 0.01 0.01 0.00 0.00 0.01 0.01 0.00 0.01 0.02 0.01 0.02 0.01 0.04 0.03 0.05 0.04 0.06 0.04 0.04 0.05 0.07 0.05 0.07 0.06 0.10 0.17 0.13 0.07 0.05 0.04
0.26 0.20 0.32 0.85 1.34 0.62 0.51 0.53 0.67 0.19 0.13 0.12 0.54 0.47 0.28 0.07 0.10 0.20 0.07 0.18 0.03 0.05 0.05 0.14 0.18 0.12 0.12 0.11 0.01 0.08 0.03 0.12 0.08 0.08 0.02 0.08 0.09 0.05 0.08 0.03 0.10 0.06 0.08 0.10 0.09 0.08 0.18 0.09 0.16 0.10 0.06 0.06 0.03 0.04 0.04 0.04 0.02 0.01 0.03 0.01 0.01 0.01 0.00 0.00 0.01 0.00 0.00 0.00 0.00 0.00 0.00 0.00 0.00 0.01 0.01 0.02 0.01 0.02 0.03 0.04 0.04 0.04 0.05 0.03 0.03 0.05 0.03 0.04 0.05 0.09 0.06 0.04 0.14 0.09 0.07 0.10 0.07
0.33 0.23 0.81 0.54 0.69 0.64 0.62 0.53 0.20 0.22 0.16 0.13 0.48 0.27 0.26 0.37 0.72 0.17 0.22 0.05 0.07 0.04 0.03 0.03 0.03 0.04 0.10 0.05 0.03 0.05 0.04 0.02 0.08 0.05 0.01 0.05 0.04 0.03 0.03 0.10 0.13 0.10 0.12 0.13 0.11 0.14 0.13 0.07 0.08 0.13 0.06 0.06 0.04 0.05 0.05 0.04 0.08 0.01 0.01 0.00 0.01 0.01 0.01 0.01 0.00 0.00 0.00 0.00 0.00 0.00 0.00 0.00 0.01 0.02 0.03 0.03 0.01 0.05 0.03 0.06 0.08 0.08 0.03 0.06 0.06 0.08 0.06 0.03 0.08 0.04 0.03 0.05 0.05 0.05 0.14 0.08 0.08
0.20 1.16 0.93 0.87 0.60 0.42 0.45 0.06 0.18 0.16 0.29 0.13 0.27 0.40 0.39 0.08 0.11 0.58 0.14 0.17 0.03 0.08 0.04 0.03 0.08 0.37 0.38 0.04 0.28 0.15 0.07 0.05 0.06 0.02 0.01 0.02 0.04 0.05 0.06 0.10 0.07 0.13 0.15 0.09 0.13 0.10 0.16 0.07 0.05 0.08 0.04 0.04 0.03 0.04 0.02 0.03 0.02 0.03 0.01 0.01 0.00 0.01 0.02 0.01 0.00 0.00 0.00 0.00 0.00 0.00 0.00 0.01 0.01 0.05 0.04 0.04 0.05 0.07 0.11 0.06 0.09 0.06 0.04 0.03 0.02 0.05 0.08 0.03 0.05 0.17 0.07 0.06 0.08 0.04 0.06 0.04 0.11
0.38 0.21 0.25 0.52 0.36 0.16 0.19 0.25 0.22 0.02 0.13 0.22 0.05 0.54 0.12 0.36 0.24 0.33 0.22 0.06 0.03 0.06 0.03 0.06 0.09 0.31 0.17 0.14 0.21 0.14 0.07 0.03 0.03 0.02 0.02 0.04 0.04 0.05 0.07 0.10 0.06 0.09 0.10 0.11 0.11 0.09 0.09 0.06 0.06 0.07 0.03 0.02 0.02 0.03 0.03 0.02 0.01 0.03 0.01 0.00 0.00 0.02 0.02 0.01 0.00 0.00 0.00 0.00 0.01 0.02 0.01 0.01 0.02 0.03 0.04 0.04 0.05 0.04 0.04 0.06 0.06 0.08 0.05 0.03 0.03 0.05 0.09 0.11 0.15 0.18 0.16 0.06 0.03 0.03 0.09 0.07 0.09
0.87 0.15 0.73 0.43 0.14 0.44 0.08 0.20 0.22 0.15 0.38 0.20 0.36 0.42 0.30 0.42 0.37 0.19 0.02 0.10 0.06 0.06 0.06 0.07 0.03 0.40 0.20 0.28 0.12 0.09 0.10 0.04 0.02 0.02 0.02 0.03 0.02 0.04 0.08 0.09 0.07 0.08 0.09 0.11 0.09 0.06 0.05 0.13 0.07 0.05 0.02 0.02 0.02 0.02 0.01 0.01 0.01 0.02 0.00 0.00 0.01 0.00 0.02 0.00 0.00 0.00 0.00 0.00 0.01 0.01 0.01 0.01 0.02 0.03 0.02 0.02 0.02 0.04 0.05 0.05 0.06 0.04 0.02 0.03 0.01 0.02 0.06 0.09 0.38 0.23 0.17 0.04 0.05 0.05 0.01 0.01 0.04
0.79 0.13 0.34 0.50 0.47 0.16 0.10 0.02 0.14 0.04 0.11 0.29 0.38 0.43 0.30 0.15 0.21 0.17 0.07 0.11 0.04 0.10 0.04 0.04 0.10 0.16 0.17 0.24 0.28 0.15 0.04 0.02 0.02 0.03 0.03 0.02 0.04 0.10 0.08 0.08 0.07 0.07 0.09 0.08 0.04 0.05 0.06 0.07 0.12 0.04 0.07 0.01 0.01 0.01 0.01 0.01 0.02 0.02 0.00 0.00 0.00 0.00 0.00 0.00 0.00 0.00 0.00 0.00 0.00 0.00 0.00 0.01 0.01 0.02 0.00 0.01 0.02 0.02 0.04 0.04 0.05 0.02 0.01 0.01 0.00 0.01 0.05 0.08 0.05 0.04 0.03 0.02 0.01 0.01 0.02 0.01 0.03
0.84 0.49 0.25 0.33 0.41 0.11 0.03 0.09 0.01 0.05 0.16 0.19 0.42 0.35 0.10 0.14 0.06 0.17 0.19 0.04 0.04 0.04 0.07 0.05 0.19 0.07 0.15 0.10 0.15 0.16 0.06 0.04 0.04 0.02 0.03 0.05 0.08 0.04 0.04 0.08 0.05 0.06 0.04 0.05 0.03 0.07 0.04 0.08 0.11 0.15 0.05 0.02 0.01 0.02 0.02 0.01 0.01 0.01 0.00 0.00 0.00 0.00 0.00 0.00 0.00 0.00 0.00 0.00 0.00 0.00 0.00 0.00 0.00 0.01 0.01 0.02 0.01 0.04 0.05 0.08 0.06 0.05 0.01 0.01 0.01 0.01 0.02 0.09 0.04 0.01 0.01 0.01 0.01 0.01 0.01 0.03 0.04
0.37 0.11 0.36 0.20 0.38 0.35 0.01 0.11 0.02 0.07 0.02 0.23 0.26 0.02 0.07 0.03 0.16 0.23 0.17 0.07 0.07 0.05 0.07 0.21 0.06 0.09 0.38 0.21 0.12 0.08 0.08 0.04 0.02 0.01 0.04 0.03 0.05 0.03 0.03 0.04 0.05 0.08 0.02 0.03 0.04 0.03 0.06 0.04 0.05 0.08 0.08 0.02 0.02 0.01 0.03 0.01 0.00 0.00 0.00 0.00 0.00 0.00 0.00 0.00 0.00 0.00 0.00 0.00 0.01 0.00 0.00 0.00 0.00 0.01 0.00 0.01 0.02 0.04 0.06 0.12 0.07 0.05 0.01 0.00 0.01 0.00 0.00 0.04 0.00 0.01 0.01 0.02 0.01 0.00 0.00 0.02 0.06
0.09 0.18 0.16 0.57 0.12 0.19 0.22 0.02 0.00 0.08 0.17 0.10 0.01 0.05 0.06 0.08 0.11 0.13 0.27 0.05 0.14 0.33 0.02 0.03 0.06 0.09 0.14 0.06 0.27 0.09 0.05 0.04 0.03 0.04 0.02 0.04 0.04 0.06 0.05 0.04 0.07 0.04 0.02 0.02 0.04 0.05 0.08 0.08 0.09 0.03 0.04 0.07 0.18 0.05 0.01 0.01 0.00 0.00 0.00 0.00 0.00 0.00 0.00 0.00 0.00 0.00 0.00 0.00 0.00 0.00 0.00 0.00 0.00 0.00 0.01 0.01 0.01 0.02 0.03 0.07 0.03 0.01 0.00 0.01 0.00 0.00 0.00 0.00 0.00 0.02 0.03 0.02 0.02 0.00 0.01 0.02 0.03
0.40 0.12 0.08 0.14 0.28 0.05 0.04 0.17 0.10 0.01 0.09 0.05 0.00 0.01 0.04 0.08 0.19 0.03 0.12 0.25 0.04 0.01 0.02 0.03 0.03 0.07 0.13 0.03 0.08 0.05 0.04 0.04 0.02 0.02 0.04 0.03 0.02 0.03 0.03 0.04 0.06 0.04 0.05 0.04 0.05 0.05 0.06 0.05 0.04 0.05 0.02 0.02 0.01 0.03 0.14 0.02 0.01 0.00 0.00 0.00 0.00 0.00 0.00 0.00 0.00 0.00 0.00 0.00 0.00 0.00 0.00 0.00 0.00 0.00 0.00 0.00 0.00 0.00 0.00 0.01 0.01 0.00 0.02 0.04 0.01 0.01 0.01 0.01 0.00 0.01 0.03 0.00 0.01 0.01 0.02 0.06 0.02
0.02 0.01 0.27 0.31 0.40 0.43 0.04 0.05 0.00 0.01 0.02 0.43 0.01 0.08 0.11 0.25 0.21 0.05 0.09 0.04 0.01 0.00 0.00 0.04 0.02 0.09 0.04 0.05 0.02 0.03 0.01 0.01 0.03 0.02 0.04 0.07 0.04 0.04 0.05 0.05 0.06 0.05 0.05 0.05 0.08 0.03 0.03 0.04 0.03 0.05 0.02 0.02 0.01 0.02 0.07 0.03 0.01 0.00 0.00 0.00 0.00 0.00 0.00 0.00 0.00 0.00 0.00 0.00 0.00 0.00 0.00 0.00 0.00 0.00 0.00 0.01 0.00 0.00 0.00 0.04 0.00 0.00 0.00 0.01 0.01 0.00 0.00 0.01 0.00 0.00 0.00 0.00 0.00 0.01 0.02 0.05 0.09
0.01 0.09 0.30 0.39 0.22 0.14 0.08 0.05 0.00 0.06 0.01 0.03 0.40 0.36 0.18 0.14 0.26 0.40 0.40 0.24 0.19 0.00 0.01 0.02 0.01 0.00 0.02 0.02 0.03 0.02 0.01 0.00 0.02 0.02 0.04 0.10 0.09 0.09 0.09 0.09 0.06 0.08 0.07 0.05 0.06 0.03 0.04 0.04 0.03 0.05 0.01 0.01 0.01 0.07 0.05 0.02 0.06 0.01 0.00 0.00 0.00 0.00 0.01 0.01 0.00 0.00 0.00 0.01 0.00 0.00 0.00 0.02 0.01 0.01 0.05 0.04 0.00 0.02 0.00 0.00 0.00 0.02 0.01 0.01 0.01 0.01 0.01 0.02 0.02 0.00 0.00 0.00 0.00 0.01 0.00 0.01 0.01
0.05 0.27 0.18 0.13 0.40 0.44 0.03 0.04 0.03 0.00 0.00 0.02 0.11 0.13 0.43 0.21 0.01 0.04 0.22 0.25 0.17 0.01 0.00 0.01 0.01 0.00 0.02 0.01 0.01 0.01 0.01 0.01 0.02 0.03 0.05 0.06 0.06 0.10 0.12 0.13 0.07 0.07 0.08 0.08 0.05 0.04 0.06 0.03 0.03 0.02 0.01 0.02 0.03 0.03 0.02 0.03 0.03 0.02 0.03 0.04 0.02 0.01 0.01 0.01 0.05 0.01 0.01 0.02 0.01 0.00 0.03 0.08 0.02 0.05 0.06 0.04 0.12 0.08 0.05 0.00 0.00 0.00 0.01 0.01 0.01 0.00 0.00 0.01 0.01 0.02 0.02 0.00 0.01 0.01 0.01 0.27 0.16
0.03 0.07 0.08 0.31 0.09 0.30 0.01 0.01 0.00 0.14 0.01 0.00 0.00 0.03 0.01 0.03 0.00 0.00 0.07 0.01 0.00 0.00 0.01 0.00 0.02 0.00 0.00 0.00 0.01 0.01 0.01 0.01 0.04 0.02 0.02 0.02 0.04 0.03 0.05 0.08 0.06 0.06 0.12 0.05 0.05 0.02 0.04 0.02 0.02 0.02 0.01 0.03 0.08 0.02 0.02 0.01 0.01 0.01 0.01 0.02 0.00 0.00 0.01 0.01 0.01 0.01 0.00 0.01 0.01 0.01 0.01 0.04 0.04 0.03 0.07 0.08 0.07 0.02 0.02 0.00 0.00 0.00 0.01 0.00 0.00 0.00 0.00 0.00 0.00 0.00 0.00 0.02 0.04 0.01 0.12 0.08 0.07
0.00 0.08 0.10 0.25 0.22 0.10 0.10 0.02 0.01 0.02 0.13 0.06 0.00 0.00 0.00 0.00 0.02 0.00 0.01 0.00 0.00 0.00 0.00 0.01 0.01 0.01 0.01 0.01 0.00 0.01 0.03 0.01 0.01 0.01 0.01 0.01 0.02 0.02 0.04 0.05 0.04 0.03 0.04 0.04 0.04 0.02 0.05 0.03 0.01 0.01 0.03 0.03 0.02 0.07 0.04 0.01 0.03 0.02 0.01 0.01 0.01 0.01 0.01 0.02 0.01 0.01 0.01 0.02 0.05 0.03 0.10 0.04 0.05 0.08 0.01 0.03 0.02 0.09 0.13 0.01 0.01 0.02 0.00 0.00 0.00 0.02 0.00 0.01 0.00 0.01 0.00 0.01 0.01 0.11 0.23 0.17 0.07
0.00 0.00 0.08 0.35 0.34 0.31 0.09 0.00 0.00 0.03 0.02 0.03 0.01 0.01 0.01 0.00 0.00 0.00 0.01 0.01 0.01 0.01 0.00 0.00 0.01 0.01 0.00 0.01 0.00 0.01 0.02 0.02 0.01 0.01 0.04 0.01 0.01 0.02 0.01 0.03 0.01 0.03 0.05 0.02 0.03 0.02 0.02 0.01 0.02 0.03 0.04 0.05 0.04 0.06 0.02 0.03 0.00 0.02 0.03 0.01 0.01 0.01 0.01 0.01 0.02 0.02 0.03 0.02 0.00 0.01 0.00 0.04 0.04 0.04 0.02 0.08 0.22 0.20 0.29 0.19 0.18 0.17 0.16 0.12 0.02 0.14 0.23 0.04 0.07 0.07 0.08 0.05 0.07 0.10 0.03 0.12 0.07
0.00 0.01 0.10 0.01 0.23 0.08 0.10 0.13 0.00 0.01 0.00 0.17 0.09 0.02 0.02 0.01 0.01 0.02 0.01 0.01 0.06 0.01 0.00 0.00 0.00 0.00 0.01 0.00 0.01 0.00 0.01 0.01 0.01 0.01 0.02 0.01 0.01 0.01 0.01 0.02 0.04 0.02 0.02 0.03 0.02 0.03 0.01 0.01 0.01 0.02 0.02 0.02 0.03 0.03 0.01 0.03 0.01 0.00 0.01 0.03 0.01 0.01 0.01 0.01 0.01 0.02 0.03 0.02 0.03 0.02 0.03 0.01 0.01 0.03 0.03 0.06 0.17 0.10 0.24 0.26 0.08 0.12 0.13 0.24 0.09 0.36 0.16 0.09 0.26 0.12 0.19 0.23 0.14 0.11 0.07 0.07 0.03
0.00 0.02 0.00 0.02 0.15 0.17 0.05 0.03 0.00 0.00 0.00 0.07 0.00 0.01 0.01 0.02 0.00 0.00 0.00 0.00 0.00 0.00 0.00 0.00 0.00 0.00 0.01 0.01 0.00 0.00 0.00 0.01 0.00 0.01 0.01 0.01 0.01 0.01 0.00 0.01 0.02 0.03 0.03 0.04 0.01 0.02 0.02 0.04 0.03 0.02 0.02 0.02 0.02 0.03 0.02 0.02 0.02 0.00 0.00 0.01 0.01 0.02 0.01 0.01 0.02 0.04 0.04 0.02 0.02 0.04 0.02 0.00 0.01 0.02 0.02 0.04 0.11 0.09 0.49 0.04 0.24 0.26 0.41 0.52 0.19 0.38 0.07 0.14 0.29 0.08 0.06 0.23 0.11 0.14 0.07 0.04 0.03
0.00 0.00 0.00 0.01 0.02 0.08 0.03 0.02 0.00 0.00 0.00 0.00 0.01 0.00 0.00 0.00 0.14 0.00 0.00 0.01 0.00 0.00 0.00 0.00 0.00 0.00 0.00 0.00 0.00 0.00 0.00 0.00 0.00 0.00 0.01 0.00 0.00 0.00 0.00 0.01 0.01 0.00 0.01 0.03 0.03 0.02 0.02 0.02 0.02 0.03 0.01 0.01 0.02 0.03 0.02 0.03 0.02 0.01 0.00 0.01 0.01 0.01 0.01 0.04 0.01 0.04 0.02 0.03 0.01 0.01 0.00 0.04 0.08 0.01 0.04 0.03 0.03 0.19 0.15 0.32 0.09 0.16 0.10 0.11 0.08 0.11 0.17 0.29 0.07 0.15 0.28 0.14 0.17 0.07 0.02 0.03 0.11
0.00 0.00 0.00 0.01 0.00 0.04 0.01 0.00 0.00 0.00 0.00 0.00 0.00 0.00 0.00 0.00 0.03 0.00 0.02 0.00 0.00 0.00 0.00 0.00 0.00 0.00 0.00 0.00 0.00 0.01 0.01 0.01 0.01 0.00 0.00 0.00 0.02 0.01 0.01 0.01 0.00 0.01 0.01 0.02 0.02 0.04 0.02 0.02 0.04 0.03 0.02 0.01 0.01 0.01 0.01 0.02 0.01 0.00 0.01 0.01 0.01 0.01 0.01 0.02 0.01 0.02 0.01 0.01 0.02 0.02 0.00 0.01 0.01 0.01 0.02 0.03 0.11 0.14 0.08 0.13 0.20 0.19 0.07 0.17 0.05 0.19 0.03 0.04 0.15 0.16 0.15 0.30 0.07 0.20 0.05 0.10 0.02
0.00 0.00 0.00 0.00 0.00 0.00 0.01 0.00 0.00 0.00 0.00 0.00 0.01 0.00 0.00 0.01 0.00 0.00 0.00 0.00 0.00 0.00 0.00 0.00 0.00 0.00 0.00 0.00 0.00 0.00 0.00 0.01 0.00 0.00 0.00 0.00 0.02 0.01 0.03 0.01 0.00 0.00 0.00 0.01 0.01 0.01 0.02 0.02 0.01 0.01 0.01 0.00 0.01 0.01 0.01 0.01 0.01 0.01 0.01 0.01 0.01 0.01 0.01 0.02 0.01 0.02 0.01 0.00 0.01 0.01 0.00 0.00 0.01 0.02 0.07 0.11 0.03 0.13 0.08 0.04 0.07 0.04 0.11 0.16 0.11 0.06 0.04 0.09 0.13 0.14 0.05 0.17 0.12 0.07 0.05 0.28 0.03
0.00 0.00 0.00 0.00 0.00 0.00 0.00 0.00 0.00 0.00 0.00 0.00 0.00 0.01 0.00 0.01 0.00 0.04 0.00 0.00 0.00 0.00 0.00 0.00 0.00 0.00 0.00 0.00 0.00 0.00 0.00 0.00 0.00 0.00 0.00 0.00 0.00 0.02 0.01 0.00 0.00 0.00 0.01 0.00 0.01 0.01 0.01 0.01 0.01 0.02 0.01 0.02 0.01 0.01 0.01 0.01 0.00 0.01 0.00 0.01 0.01 0.03 0.00 0.02 0.01 0.01 0.00 0.01 0.00 0.00 0.00 0.01 0.01 0.07 0.13 0.04 0.04 0.03 0.05 0.04 0.08 0.13 0.06 0.20 0.09 0.07 0.09 0.11 0.09 0.03 0.03 0.12 0.12 0.04 0.21 0.05 0.02
0.00 0.00 0.00 0.00 0.00 0.00 0.00 0.00 0.00 0.00 0.00 0.00 0.00 0.00 0.00 0.01 0.00 0.00 0.00 0.00 0.00 0.00 0.00 0.00 0.00 0.00 0.00 0.00 0.01 0.00 0.00 0.00 0.00 0.00 0.00 0.00 0.00 0.00 0.01 0.01 0.00 0.00 0.01 0.01 0.01 0.01 0.01 0.01 0.00 0.00 0.02 0.01 0.01 0.01 0.01 0.01 0.01 0.01 0.01 0.01 0.02 0.01 0.01 0.00 0.00 0.00 0.02 0.01 0.02 0.06 0.03 0.03 0.00 0.02 0.07 0.11 0.11 0.04 0.11 0.05 0.05 0.03 0.09 0.02 0.06 0.09 0.14 0.12 0.10 0.19 0.05 0.02 0.11 0.14 0.17 0.04 0.01
0.00 0.00 0.00 0.00 0.00 0.00 0.00 0.00 0.00 0.00 0.00 0.00 0.00 0.00 0.00 0.02 0.00 0.00 0.00 0.00 0.00 0.00 0.00 0.00 0.00 0.00 0.00 0.00 0.00 0.00 0.00 0.00 0.00 0.00 0.00 0.00 0.00 0.00 0.00 0.00 0.00 0.00 0.00 0.00 0.00 0.00 0.01 0.01 0.01 0.01 0.01 0.01 0.01 0.01 0.01 0.00 0.01 0.00 0.01 0.00 0.01 0.01 0.01 0.01 0.01 0.00 0.00 0.00 0.03 0.00 0.04 0.05 0.04 0.03 0.01 0.04 0.01 0.06 0.04 0.03 0.04 0.01 0.02 0.07 0.03 0.06 0.04 0.03 0.11 0.15 0.30 0.05 0.10 0.09 0.05 0.00 0.00
0.00 0.00 0.00 0.00 0.00 0.00 0.00 0.00 0.00 0.00 0.00 0.00 0.00 0.06 0.00 0.00 0.01 0.02 0.01 0.00 0.00 0.00 0.00 0.00 0.00 0.00 0.00 0.00 0.00 0.00 0.00 0.00 0.00 0.00 0.00 0.00 0.00 0.00 0.00 0.00 0.00 0.00 0.00 0.01 0.01 0.00 0.00 0.00 0.00 0.01 0.01 0.01 0.01 0.01 0.00 0.00 0.00 0.00 0.00 0.01 0.00 0.01 0.00 0.03 0.00 0.00 0.01 0.00 0.01 0.06 0.04 0.05 0.04 0.02 0.01 0.04 0.02 0.03 0.04 0.10 0.04 0.03 0.04 0.03 0.02 0.04 0.07 0.07 0.09 0.06 0.05 0.05 0.07 0.02 0.02 0.01 0.01
0.00 0.00 0.00 0.00 0.00 0.00 0.00 0.00 0.00 0.00 0.00 0.00 0.00 0.02 0.00 0.00 0.02 0.00 0.01 0.00 0.00 0.00 0.00 0.02 0.00 0.00 0.01 0.01 0.01 0.01 0.00 0.00 0.00 0.00 0.00 0.00 0.00 0.00 0.00 0.00 0.00 0.00 0.00 0.00 0.00 0.00 0.01 0.00 0.00 0.01 0.01 0.01 0.01 0.01 0.01 0.00 0.00 0.00 0.00 0.00 0.00 0.00 0.00 0.01 0.00 0.00 0.01 0.01 0.01 0.05 0.04 0.03 0.01 0.03 0.01 0.01 0.04 0.05 0.05 0.01 0.05 0.04 0.03 0.06 0.06 0.04 0.03 0.08 0.04 0.04 0.02 0.03 0.01 0.02 0.01 0.01 0.01
0.00 0.00 0.00 0.00 0.00 0.00 0.00 0.00 0.00 0.00 0.00 0.00 0.00 0.00 0.03 0.00 0.00 0.02 0.00 0.00 0.00 0.00 0.00 0.00 0.01 0.01 0.03 0.03 0.01 0.02 0.01 0.00 0.00 0.00 0.00 0.00 0.00 0.00 0.00 0.00 0.00 0.00 0.00 0.00 0.00 0.00 0.01 0.00 0.00 0.00 0.00 0.02 0.01 0.00 0.00 0.00 0.00 0.00 0.00 0.00 0.00 0.00 0.00 0.00 0.00 0.00 0.00 0.00 0.00 0.02 0.02 0.04 0.02 0.01 0.01 0.01 0.03 0.02 0.04 0.20 0.08 0.04 0.07 0.03 0.05 0.07 0.04 0.04 0.10 0.07 0.03 0.03 0.01 0.02 0.01 0.02 0.01
0.00 0.00 0.00 0.00 0.00 0.00 0.00 0.00 0.00 0.00 0.00 0.00 0.00 0.02 0.01 0.05 0.00 0.00 0.00 0.00 0.00 0.00 0.04 0.00 0.02 0.01 0.01 0.02 0.02 0.02 0.00 0.00 0.00 0.00 0.00 0.00 0.00 0.00 0.00 0.00 0.00 0.00 0.00 0.00 0.00 0.00 0.00 0.00 0.00 0.00 0.01 0.01 0.01 0.01 0.00 0.00 0.00 0.00 0.00 0.00 0.00 0.00 0.01 0.00 0.05 0.01 0.00 0.01 0.01 0.02 0.04 0.04 0.01 0.00 0.00 0.00 0.00 0.01 0.05 0.03 0.11 0.11 0.09 0.08 0.06 0.06 0.08 0.05 0.06 0.06 0.04 0.05 0.01 0.01 0.02 0.02 0.02
0.00 0.00 0.00 0.00 0.00 0.00 0.00 0.00 0.00 0.00 0.00 0.00 0.00 0.00 0.03 0.06 0.00 0.00 0.00 0.00 0.00 0.00 0.01 0.00 0.00 0.00 0.00 0.04 0.02 0.05 0.02 0.01 0.02 0.00 0.00 0.00 0.00 0.00 0.00 0.00 0.00 0.00 0.00 0.00 0.00 0.00 0.00 0.00 0.00 0.00 0.01 0.01 0.00 0.00 0.00 0.00 0.00 0.00 0.00 0.01 0.00 0.01 0.01 0.00 0.00 0.01 0.01 0.01 0.01 0.00 0.01 0.02 0.01 0.00 0.00 0.00 0.00 0.00 0.03 0.01 0.05 0.21 0.13 0.10 0.08 0.06 0.16 0.09 0.05 0.05 0.06 0.03 0.02 0.02 0.02 0.03 0.01
0.00 0.00 0.00 0.00 0.00 0.00 0.00 0.00 0.00 0.00 0.00 0.00 0.00 0.00 0.02 0.07 0.00 0.00 0.00 0.00 0.00 0.00 0.00 0.03 0.00 0.02 0.02 0.04 0.00 0.02 0.03 0.00 0.03 0.01 0.01 0.00 0.00 0.00 0.00 0.00 0.00 0.00 0.00 0.00 0.00 0.00 0.00 0.00 0.00 0.00 0.00 0.01 0.01 0.00 0.00 0.00 0.00 0.00 0.00 0.00 0.01 0.00 0.01 0.00 0.00 0.01 0.01 0.00 0.00 0.00 0.01 0.01 0.00 0.00 0.00 0.00 0.00 0.00 0.01 0.03 0.05 0.10 0.04 0.16 0.10 0.07 0.08 0.08 0.06 0.04 0.03 0.06 0.01 0.03 0.03 0.01 0.00
0.00 0.00 0.00 0.00 0.00 0.00 0.00 0.00 0.00 0.00 0.00 0.00 0.00 0.00 0.00 0.01 0.01 0.00 0.00 0.00 0.00 0.00 0.00 0.00 0.02 0.02 0.02 0.02 0.06 0.03 0.00 0.03 0.01 0.02 0.00 0.00 0.00 0.00 0.00 0.00 0.00 0.00 0.00 0.00 0.00 0.00 0.00 0.00 0.00 0.00 0.00 0.00 0.01 0.00 0.01 0.02 0.03 0.00 0.00 0.00 0.02 0.00 0.00 0.01 0.00 0.00 0.00 0.00 0.01 0.01 0.00 0.01 0.01 0.00 0.01 0.01 0.02 0.02 0.03 0.03 0.11 0.14 0.09 0.08 0.17 0.08 0.17 0.14 0.08 0.04 0.02 0.04 0.07 0.04 0.02 0.01 0.00
0.00 0.00 0.00 0.00 0.00 0.00 0.00 0.00 0.00 0.00 0.00 0.00 0.00 0.00 0.00 0.01 0.00 0.01 0.00 0.00 0.00 0.00 0.00 0.00 0.01 0.00 0.01 0.02 0.03 0.04 0.05 0.04 0.01 0.02 0.01 0.00 0.00 0.00 0.00 0.00 0.00 0.00 0.00 0.00 0.00 0.00 0.00 0.00 0.00 0.00 0.00 0.00 0.00 0.00 0.04 0.01 0.01 0.00 0.00 0.01 0.02 0.02 0.02 0.01 0.01 0.00 0.00 0.00 0.00 0.00 0.00 0.01 0.00 0.00 0.00 0.01 0.01 0.02 0.04 0.05 0.10 0.11 0.10 0.16 0.12 0.09 0.08 0.12 0.07 0.04 0.03 0.03 0.05 0.02 0.02 0.00 0.00
0.00 0.00 0.00 0.00 0.00 0.00 0.00 0.00 0.00 0.00 0.00 0.00 0.00 0.00 0.00 0.01 0.00 0.00 0.00 0.00 0.00 0.01 0.00 0.00 0.00 0.01 0.03 0.02 0.00 0.00 0.03 0.04 0.02 0.02 0.01 0.01 0.00 0.00 0.00 0.00 0.00 0.00 0.00 0.00 0.00 0.00 0.00 0.00 0.00 0.00 0.00 0.00 0.00 0.00 0.01 0.02 0.00 0.00 0.00 0.00 0.00 0.03 0.02 0.01 0.01 0.01 0.03 0.01 0.00 0.00 0.00 0.00 0.00 0.00 0.00 0.01 0.01 0.02 0.08 0.08 0.11 0.18 0.09 0.13 0.08 0.07 0.03 0.14 0.02 0.03 0.04 0.06 0.03 0.02 0.02 0.00 0.00
0.00 0.00 0.00 0.00 0.00 0.00 0.00 0.00 0.00 0.00 0.00 0.00 0.00 0.00 0.00 0.00 0.01 0.00 0.00 0.00 0.00 0.01 0.00 0.00 0.00 0.00 0.00 0.03 0.05 0.03 0.01 0.03 0.02 0.02 0.03 0.01 0.00 0.00 0.00 0.00 0.00 0.00 0.00 0.00 0.00 0.00 0.00 0.00 0.00 0.00 0.00 0.00 0.00 0.00 0.00 0.00 0.00 0.00 0.00 0.00 0.00 0.02 0.00 0.01 0.01 0.00 0.01 0.02 0.02 0.00 0.01 0.00 0.00 0.00 0.01 0.02 0.01 0.03 0.06 0.13 0.13 0.15 0.05 0.08 0.09 0.05 0.05 0.07 0.05 0.03 0.02 0.01 0.02 0.01 0.01 0.00 0.00
0.00 0.00 0.00 0.00 0.00 0.00 0.00 0.00 0.00 0.00 0.00 0.00 0.00 0.00 0.01 0.00 0.00 0.01 0.00 0.00 0.00 0.00 0.00 0.00 0.00 0.00 0.00 0.02 0.00 0.02 0.01 0.01 0.03 0.01 0.01 0.00 0.01 0.01 0.00 0.00 0.00 0.00 0.00 0.00 0.00 0.00 0.00 0.00 0.00 0.00 0.00 0.00 0.00 0.00 0.00 0.00 0.00 0.00 0.00 0.00 0.00 0.01 0.03 0.01 0.01 0.01 0.01 0.04 0.02 0.01 0.01 0.02 0.02 0.01 0.06 0.06 0.12 0.09 0.06 0.06 0.05 0.07 0.05 0.06 0.06 0.08 0.04 0.03 0.06 0.10 0.02 0.01 0.01 0.01 0.00 0.00 0.00
0.00 0.00 0.00 0.00 0.00 0.00 0.00 0.00 0.00 0.00 0.00 0.00 0.00 0.00 0.00 0.00 0.00 0.01 0.00 0.00 0.00 0.00 0.00 0.00 0.00 0.00 0.00 0.00 0.01 0.01 0.01 0.01 0.02 0.01 0.00 0.00 0.00 0.01 0.00 0.00 0.00 0.00 0.00 0.00 0.00 0.00 0.00 0.00 0.00 0.00 0.00 0.00 0.00 0.00 0.00 0.00 0.03 0.02 0.01 0.00 0.01 0.00 0.00 0.01 0.01 0.02 0.02 0.03 0.01 0.02 0.02 0.04 0.02 0.02 0.01 0.04 0.05 0.04 0.04 0.04 0.03 0.03 0.03 0.03 0.04 0.05 0.07 0.06 0.07 0.07 0.02 0.01 0.01 0.01 0.02 0.00 0.01
0.00 0.00 0.00 0.00 0.00 0.00 0.00 0.00 0.00 0.00 0.00 0.00 0.00 0.02 0.00 0.00 0.00 0.01 0.00 0.00 0.00 0.00 0.00 0.01 0.00 0.00 0.00 0.00 0.00 0.00 0.00 0.02 0.02 0.04 0.00 0.00 0.01 0.04 0.00 0.00 0.00 0.00 0.00 0.00 0.00 0.00 0.00 0.00 0.00 0.00 0.00 0.00 0.00 0.00 0.00 0.00 0.02 0.00 0.01 0.04 0.06 0.01 0.04 0.01 0.01 0.00 0.01 0.01 0.03 0.01 0.03 0.07 0.03 0.01 0.01 0.01 0.00 0.02 0.03 0.02 0.00 0.02 0.09 0.04 0.04 0.02 0.04 0.04 0.03 0.04 0.03 0.01 0.00 0.00 0.01 0.00 0.00
0.00 0.00 0.00 0.00 0.00 0.00 0.00 0.00 0.00 0.00 0.01 0.00 0.00 0.00 0.01 0.00 0.00 0.00 0.00 0.01 0.01 0.03 0.00 0.02 0.00 0.01 0.01 0.00 0.00 0.01 0.01 0.00 0.03 0.01 0.02 0.03 0.01 0.01 0.00 0.00 0.00 0.00 0.00 0.00 0.00 0.00 0.00 0.00 0.00 0.00 0.00 0.00 0.00 0.00 0.00 0.00 0.00 0.00 0.01 0.02 0.01 0.01 0.01 0.00 0.01 0.01 0.01 0.00 0.01 0.00 0.05 0.06 0.04 0.03 0.06 0.01 0.00 0.02 0.03 0.03 0.02 0.02 0.01 0.05 0.03 0.01 0.03 0.05 0.06 0.02 0.00 0.00 0.00 0.01 0.00 0.00 0.00
0.00 0.00 0.00 0.00 0.00 0.00 0.00 0.00 0.00 0.00 0.00 0.00 0.00 0.00 0.04 0.02 0.00 0.00 0.00 0.00 0.00 0.01 0.01 0.01 0.00 0.02 0.01 0.02 0.00 0.00 0.01 0.00 0.00 0.00 0.02 0.00 0.01 0.00 0.00 0.00 0.00 0.00 0.00 0.00 0.00 0.00 0.00 0.00 0.00 0.00 0.00 0.00 0.00 0.00 0.00 0.00 0.00 0.01 0.03 0.01 0.00 0.00 0.00 0.00 0.00 0.00 0.00 0.00 0.02 0.01 0.01 0.03 0.01 0.02 0.00 0.01 0.07 0.01 0.01 0.03 0.05 0.01 0.00 0.01 0.02 0.03 0.01 0.02 0.01 0.01 0.01 0.00 0.00 0.00 0.00 0.00 0.00
0.00 0.00 0.00 0.00 0.00 0.00 0.00 0.00 0.00 0.00 0.00 0.02 0.00 0.00 0.03 0.00 0.00 0.00 0.00 0.02 0.00 0.01 0.01 0.00 0.00 0.00 0.02 0.02 0.02 0.02 0.01 0.01 0.00 0.00 0.00 0.00 0.00 0.00 0.01 0.00 0.00 0.00 0.00 0.00 0.00 0.00 0.00 0.00 0.00 0.00 0.00 0.00 0.00 0.00 0.00 0.00 0.00 0.01 0.00 0.01 0.00 0.00 0.00 0.00 0.00 0.00 0.00 0.00 0.00 0.01 0.00 0.01 0.00 0.01 0.00 0.01 0.00 0.00 0.00 0.01 0.03 0.01 0.00 0.00 0.00 0.02 0.03 0.01 0.01 0.01 0.01 0.00 0.00 0.00 0.00 0.00 0.00
0.00 0.00 0.00 0.00 0.00 0.00 0.00 0.00 0.00 0.00 0.00 0.00 0.00 0.00 0.01 0.00 0.00 0.00 0.00 0.00 0.01 0.00 0.00 0.01 0.01 0.01 0.01 0.01 0.01 0.02 0.01 0.00 0.01 0.02 0.00 0.04 0.01 0.00 0.01 0.00 0.00 0.00 0.00 0.00 0.00 0.00 0.00 0.00 0.00 0.00 0.00 0.00 0.00 0.00 0.00 0.00 0.00 0.00 0.01 0.00 0.00 0.00 0.00 0.00 0.00 0.00 0.00 0.00 0.00 0.00 0.00 0.00 0.00 0.01 0.00 0.00 0.00 0.00 0.00 0.00 0.01 0.05 0.01 0.00 0.00 0.01 0.01 0.02 0.01 0.01 0.01 0.01 0.00 0.00 0.00 0.00 0.00
0.00 0.00 0.00 0.00 0.00 0.00 0.00 0.00 0.00 0.00 0.00 0.00 0.00 0.00 0.00 0.02 0.00 0.00 0.00 0.00 0.00 0.01 0.01 0.00 0.00 0.00 0.01 0.02 0.02 0.02 0.03 0.02 0.01 0.01 0.01 0.01 0.00 0.02 0.01 0.01 0.00 0.00 0.00 0.00 0.00 0.00 0.00 0.00 0.00 0.00 0.00 0.00 0.00 0.00 0.00 0.00 0.00 0.00 0.00 0.00 0.00 0.00 0.00 0.00 0.00 0.00 0.00 0.00 0.00 0.00 0.00 0.00 0.00 0.00 0.00 0.00 0.00 0.00 0.00 0.00 0.00 0.00 0.04 0.00 0.00 0.00 0.00 0.03 0.05 0.07 0.00 0.00 0.00 0.00 0.01 0.00 0.00
0.00 0.00 0.00 0.00 0.00 0.00 0.00 0.00 0.00 0.00 0.00 0.00 0.00 0.00 0.00 0.01 0.00 0.00 0.00 0.00 0.00 0.00 0.00 0.00 0.00 0.00 0.00 0.00 0.01 0.00 0.01 0.01 0.01 0.01 0.01 0.01 0.02 0.06 0.01 0.01 0.02 0.01 0.00 0.00 0.00 0.00 0.00 0.00 0.00 0.00 0.00 0.00 0.00 0.00 0.00 0.00 0.00 0.00 0.00 0.00 0.00 0.00 0.00 0.00 0.00 0.00 0.00 0.00 0.00 0.00 0.01 0.00 0.00 0.00 0.00 0.00 0.00 0.02 0.00 0.00 0.00 0.00 0.00 0.00 0.01 0.00 0.02 0.01 0.02 0.01 0.00 0.01 0.00 0.00 0.01 0.00 0.00
0.00 0.00 0.00 0.00 0.00 0.00 0.00 0.00 0.00 0.00 0.00 0.00 0.00 0.00 0.00 0.00 0.00 0.00 0.00 0.00 0.00 0.00 0.00 0.00 0.00 0.00 0.00 0.01 0.00 0.00 0.00 0.01 0.03 0.02 0.02 0.00 0.02 0.00 0.00 0.00 0.00 0.00 0.00 0.00 0.00 0.00 0.00 0.00 0.00 0.00 0.00 0.00 0.00 0.00 0.00 0.00 0.00 0.00 0.00 0.00 0.00 0.00 0.00 0.00 0.00 0.00 0.00 0.00 0.00 0.00 0.00 0.00 0.00 0.00 0.00 0.00 0.00 0.00 0.00 0.00 0.00 0.00 0.00 0.00 0.01 0.01 0.00 0.01 0.02 0.01 0.00 0.00 0.00 0.00 0.00 0.00 0.00
0.00 0.00 0.00 0.00 0.00 0.00 0.00 0.00 0.00 0.00 0.00 0.00 0.00 0.00 0.00 0.00 0.00 0.00 0.00 0.00 0.00 0.00 0.00 0.00 0.00 0.00 0.00 0.00 0.00 0.00 0.00 0.00 0.00 0.01 0.01 0.01 0.01 0.02 0.00 0.01 0.00 0.00 0.00 0.00 0.00 0.00 0.00 0.00 0.00 0.00 0.00 0.00 0.00 0.00 0.00 0.00 0.00 0.00 0.00 0.00 0.00 0.00 0.00 0.00 0.00 0.00 0.00 0.00 0.00 0.00 0.00 0.00 0.00 0.00 0.00 0.00 0.00 0.00 0.00 0.00 0.00 0.00 0.00 0.00 0.00 0.00 0.00 0.01 0.01 0.01 0.00 0.00 0.00 0.00 0.00 0.00 0.00
0.00 0.00 0.00 0.00 0.00 0.00 0.00 0.00 0.00 0.00 0.01 0.00 0.00 0.00 0.00 0.02 0.00 0.00 0.00 0.00 0.00 0.00 0.00 0.00 0.00 0.00 0.00 0.00 0.00 0.01 0.00 0.00 0.01 0.01 0.02 0.03 0.00 0.00 0.01 0.00 0.00 0.00 0.00 0.00 0.00 0.00 0.00 0.00 0.00 0.00 0.00 0.00 0.00 0.00 0.00 0.00 0.00 0.00 0.00 0.00 0.00 0.00 0.00 0.00 0.00 0.00 0.00 0.00 0.00 0.00 0.00 0.00 0.00 0.00 0.00 0.02 0.00 0.00 0.00 0.00 0.00 0.00 0.00 0.00 0.00 0.00 0.01 0.01 0.01 0.01 0.00 0.00 0.00 0.00 0.00 0.00 0.00
0.00 0.00 0.00 0.00 0.00 0.00 0.00 0.00 0.00 0.00 0.00 0.00 0.00 0.00 0.00 0.00 0.00 0.00 0.00 0.00 0.00 0.00 0.00 0.00 0.00 0.00 0.00 0.00 0.00 0.01 0.00 0.00 0.01 0.00 0.00 0.00 0.03 0.10 0.01 0.00 0.00 0.00 0.00 0.00 0.00 0.00 0.00 0.00 0.00 0.00 0.00 0.00 0.00 0.00 0.00 0.00 0.00 0.00 0.00 0.00 0.00 0.00 0.00 0.00 0.01 0.00 0.00 0.00 0.00 0.00 0.00 0.00 0.00 0.01 0.00 0.01 0.00 0.00 0.00 0.00 0.00 0.00 0.00 0.00 0.00 0.00 0.00 0.01 0.01 0.01 0.01 0.01 0.00 0.00 0.00 0.00 0.00
0.00 0.00 0.00 0.00 0.00 0.00 0.00 0.00 0.00 0.00 0.00 0.00 0.00 0.00 0.00 0.00 0.00 0.00 0.00 0.00 0.00 0.00 0.00 0.00 0.00 0.00 0.00 0.00 0.00 0.00 0.00 0.00 0.00 0.00 0.00 0.00 0.00 0.00 0.00 0.00 0.00 0.00 0.00 0.00 0.00 0.00 0.00 0.00 0.00 0.00 0.00 0.00 0.00 0.00 0.00 0.00 0.00 0.00 0.00 0.00 0.00 0.00 0.00 0.00 0.00 0.00 0.00 0.01 0.01 0.00 0.01 0.00 0.00 0.00 0.00 0.00 0.00 0.00 0.00 0.00 0.00 0.00 0.00 0.00 0.00 0.00 0.00 0.00 0.00 0.01 0.01 0.00 0.00 0.01 0.00 0.00 0.00
0.00 0.00 0.00 0.00 0.00 0.00 0.00 0.00 0.00 0.00 0.00 0.00 0.00 0.00 0.00 0.00 0.01 0.00 0.00 0.00 0.00 0.00 0.00 0.00 0.00 0.00 0.00 0.00 0.00 0.00 0.00 0.00 0.00 0.00 0.00 0.00 0.00 0.00 0.00 0.00 0.00 0.00 0.00 0.00 0.00 0.00 0.00 0.00 0.00 0.00 0.00 0.00 0.00 0.00 0.00 0.00 0.00 0.00 0.00 0.00 0.00 0.00 0.00 0.00 0.00 0.00 0.00 0.01 0.01 0.00 0.01 0.00 0.00 0.00 0.00 0.01 0.00 0.00 0.00 0.00 0.00 0.00 0.00 0.00 0.00 0.01 0.00 0.00 0.00 0.00 0.00 0.00 0.01 0.00 0.00 0.00 0.00
0.00 0.00 0.00 0.00 0.00 0.00 0.00 0.00 0.00 0.00 0.00 0.00 0.00 0.00 0.00 0.00 0.00 0.00 0.00 0.00 0.00 0.00 0.00 0.00 0.00 0.00 0.00 0.00 0.00 0.00 0.00 0.00 0.00 0.00 0.00 0.00 0.00 0.00 0.00 0.00 0.00 0.00 0.00 0.00 0.00 0.00 0.00 0.00 0.00 0.00 0.00 0.00 0.00 0.00 0.00 0.00 0.00 0.00 0.00 0.00 0.00 0.00 0.00 0.00 0.00 0.00 0.00 0.00 0.00 0.00 0.00 0.01 0.00 0.00 0.00 0.00 0.00 0.00 0.00 0.00 0.00 0.00 0.00 0.00 0.00 0.00 0.00 0.01 0.00 0.00 0.00 0.00 0.00 0.00 0.00 0.00 0.00
0.00 0.00 0.00 0.00 0.00 0.00 0.00 0.00 0.00 0.00 0.00 0.00 0.00 0.00 0.00 0.00 0.00 0.00 0.00 0.00 0.00 0.00 0.00 0.00 0.00 0.00 0.00 0.00 0.00 0.00 0.00 0.00 0.00 0.00 0.01 0.00 0.00 0.00 0.00 0.00 0.00 0.00 0.00 0.00 0.00 0.00 0.00 0.00 0.00 0.00 0.00 0.00 0.00 0.00 0.00 0.00 0.00 0.00 0.00 0.00 0.00 0.00 0.00 0.00 0.00 0.00 0.00 0.00 0.00 0.05 0.00 0.01 0.00 0.00 0.00 0.00 0.00 0.00 0.00 0.00 0.00 0.00 0.00 0.00 0.00 0.00 0.00 0.00 0.01 0.00 0.00 0.00 0.00 0.00 0.00 0.00 0.00
0.00 0.00 0.00 0.00 0.00 0.00 0.00 0.00 0.00 0.00 0.00 0.00 0.00 0.00 0.00 0.00 0.00 0.00 0.00 0.00 0.00 0.00 0.00 0.00 0.00 0.00 0.00 0.00 0.00 0.00 0.00 0.00 0.00 0.00 0.00 0.00 0.00 0.00 0.01 0.00 0.00 0.01 0.02 0.00 0.00 0.00 0.00 0.00 0.00 0.00 0.00 0.00 0.00 0.00 0.00 0.00 0.00 0.00 0.00 0.00 0.00 0.00 0.00 0.00 0.00 0.00 0.03 0.00 0.00 0.03 0.03 0.05 0.02 0.00 0.00 0.00 0.00 0.00 0.00 0.00 0.00 0.00 0.00 0.00 0.00 0.00 0.00 0.00 0.00 0.00 0.00 0.00 0.00 0.00 0.00 0.00 0.00
0.00 0.00 0.00 0.00 0.00 0.00 0.00 0.00 0.00 0.00 0.00 0.00 0.00 0.00 0.00 0.00 0.00 0.00 0.00 0.00 0.00 0.00 0.00 0.00 0.00 0.00 0.00 0.00 0.00 0.00 0.00 0.00 0.00 0.02 0.01 0.00 0.00 0.01 0.01 0.01 0.01 0.01 0.01 0.00 0.00 0.00 0.00 0.00 0.00 0.00 0.00 0.00 0.00 0.00 0.00 0.00 0.00 0.00 0.00 0.00 0.00 0.00 0.00 0.00 0.00 0.00 0.00 0.00 0.00 0.04 0.00 0.00 0.00 0.01 0.00 0.00 0.00 0.00 0.01 0.00 0.00 0.00 0.01 0.00 0.00 0.00 0.00 0.00 0.00 0.00 0.00 0.00 0.00 0.00 0.00 0.00 0.00